User: anonymous   Login
Location: Bartlow
(52.0833°N, 0.3167°E)
Time: 17:59:53
(UTC+00:00)
Language:

Cosmos 371 Rocket - Orbit

View from above orbital plane
View from above orbital plane
View from above satellite
View from above satellite

Ground track
Ground track

The orbit data is extracted from the following two-line orbital elements,

1  4579U 70083B   24062.46102024  .00000820  00000-0  17062-3 0  9995
2  4579  73.9999  82.0167 0011252 221.5066 138.5247 14.61698354832527
Epoch (UTC): 02 March 2024 11:03:52
Eccentricity: 0.0011252
inclination: 73.9999°
perigee height: 680 km
apogee height: 695 km
right ascension of ascending node: 82.0167°
argument of perigee: 221.5066°
revolutions per day: 14.61698354
mean anomaly at epoch: 138.5247°
orbit number at epoch: 83252

The dashed part of the orbit path shows where the satellite is in the earth's shadow,  

DLR